Weather History for KDEN - May, 2013

Change the Weather History Date:

Saturday, May 11, 2013

  Actual Average Record
Temperature  
Mean Temperature 57 °F 55 °F  
Max Temperature 70 °F 70 °F 90 °F (1961)
Min Temperature 43 °F 41 °F 28 °F (1946)
Degree Days  
Heating Degree Days 8 10  
Month to date heating degree days 190 128  
Since 1 July heating degree days 5992 5859  
Cooling Degree Days 0 0  
Month to date cooling degree days 0 0  
Year to date cooling degree days 0 1  
Growing Degree Days 6 (Base 50)    
Moisture  
Dew Point 39 °F    
Average Humidity 56    
Maximum Humidity 83    
Minimum Humidity 28    
Precipitation  
Precipitation 0.00 in 0.06 in 1.55 in (2011)
Month to date precipitation 0.64 0.73  
Year to date precipitation 5.06 4.14  
Snow  
Snow 0.00 in - - ()
Month to date snowfall 3.4  
Since 1 July snowfall 78.4  
Snow Depth 0.00 in    
Sea Level Pressure  
Sea Level Pressure 30.22 in    
Wind  
Wind Speed 8 mph (East)    
Max Wind Speed 23 mph    
Max Gust Speed 28 mph    
Visibility 10 miles    
Events      
T = Trace of Precipitation, MM = Missing Value Source: NWS Daily Summary

Daily Weather History Graph

Daily Weather History Graph

Search for Another Location

Airport or City:

Trip Planner

Search our weather history database for the weather conditions in past years. The results will help you decide how hot, cold, wet, or windy it might be!

Date:

Astronomy

May. 11, 2013 Rise Set
Actual Time 5:47 AM MDT 8:03 PM MDT
Civil Twilight 5:17 AM MDT 8:33 PM MDT
Nautical Twilight 4:40 AM MDT 9:10 PM MDT
Astronomical Twilight 3:59 AM MDT 9:51 PM MDT
Moon 6:57 AM MDT (5/11) 9:45 PM MDT (5/11)
Length of Visible Light 15h 16m
Length of Day
14h 15m
Waxing Crescent, 3% of the Moon is Illuminated
May 11
Waxing Crescent
May 17
First Quarter
May 24
Full
May 31
Last Quarter
Jun 8
New

Hourly Weather History & Observations

Time (MDT) Temp. Windchill Dew Point Humidity Pressure Visibility Wind Dir Wind Speed Gust Speed Precip Events Conditions
12:53 AM 48.0 °F - 37.0 °F 66% 30.21 in 10.0 mi North 11.5 mph - N/A   Partly Cloudy
1:53 AM 45.0 °F 41.2 °F 37.9 °F 76% 30.25 in 10.0 mi NE 6.9 mph - N/A   Mostly Cloudy
2:53 AM 46.9 °F - 37.9 °F 71% 30.27 in 10.0 mi NW 9.2 mph - N/A   Mostly Cloudy
3:53 AM 48.0 °F - 39.0 °F 71% 30.27 in 10.0 mi NW 9.2 mph - N/A   Mostly Cloudy
4:53 AM 46.0 °F 43.1 °F 37.9 °F 73% 30.28 in 10.0 mi NW 5.8 mph - N/A   Scattered Clouds
5:53 AM 46.9 °F - 37.9 °F 71% 30.29 in 10.0 mi NNW 3.5 mph - N/A   Scattered Clouds
6:53 AM 45.0 °F - 39.9 °F 82% 30.33 in 10.0 mi Calm Calm - N/A   Partly Cloudy
7:53 AM 50.0 °F - 39.9 °F 68% 30.32 in 10.0 mi East 9.2 mph - N/A   Partly Cloudy
8:53 AM 52.0 °F - 39.9 °F 63% 30.30 in 10.0 mi ESE 10.4 mph - N/A   Scattered Clouds
9:53 AM 55.0 °F - 39.9 °F 57% 30.29 in 10.0 mi SE 6.9 mph - N/A   Partly Cloudy
10:53 AM 57.0 °F - 39.9 °F 53% 30.27 in 10.0 mi SE 4.6 mph - N/A   Partly Cloudy
11:53 AM 62.1 °F - 41.0 °F 46% 30.24 in 10.0 mi SE 5.8 mph - N/A   Scattered Clouds
12:53 PM 64.0 °F - 39.0 °F 40% 30.22 in 10.0 mi ESE 5.8 mph - N/A   Scattered Clouds
1:53 PM 66.9 °F - 34.0 °F 30% 30.20 in 10.0 mi Calm Calm - N/A   Scattered Clouds
2:53 PM 69.1 °F - 35.1 °F 29% 30.16 in 10.0 mi NE 6.9 mph - N/A   Scattered Clouds
3:53 PM 66.0 °F - 33.1 °F 29% 30.15 in 10.0 mi NNW 5.8 mph - N/A   Mostly Cloudy
4:53 PM 64.9 °F - 35.1 °F 33% 30.16 in 10.0 mi North 13.8 mph - N/A   Mostly Cloudy
5:53 PM 62.1 °F - 39.9 °F 44% 30.14 in 10.0 mi East 10.4 mph - N/A   Mostly Cloudy
6:53 PM 61.0 °F - 39.0 °F 44% 30.17 in 10.0 mi South 9.2 mph - N/A   Scattered Clouds
7:53 PM 53.6 °F - 42.8 °F 67% 30.28 in 10.0 mi South 10.4 mph - N/A   Scattered Clouds
8:53 PM 50.0 °F - 43.0 °F 77% 30.18 in 10.0 mi SSE 11.5 mph - N/A   Scattered Clouds
9:53 PM 48.0 °F - 41.0 °F 77% 30.17 in 10.0 mi South 12.7 mph - N/A   Scattered Clouds
10:53 PM 50.0 °F - 39.9 °F 68% 30.14 in 10.0 mi SSW 9.2 mph - N/A   Scattered Clouds
11:53 PM 52.0 °F - 39.0 °F 61% 30.11 in 10.0 mi SSW 13.8 mph - N/A   Partly Cloudy